Cloverdale, Indiana, United States (46120)
Lat: 39.51N, Lon: 86.79W
Wx Zone: INZ045
Local Info
Past Weather Observations for Wednesday, October 22, 2014

NOTE: This archive is for the closest National Weather Service station to Cloverdale. Information may differ from the station used for current weather conditions.

Click here for Long-term Archive

Time Weather Temperature Dewpoint Humidity Pressure Winds Precip Visibility
23:53
Clear
37°F / 3°C 36°F / 2°C 93% 30.27 in
(1025 mb)
Calm - 9SM
22:53
Clear
39°F / 4°C 37°F / 3°C 93% 30.27 in
(1025 mb)
Calm - 10SM
21:53
Clear
39°F / 4°C 37°F / 3°C 93% 30.27 in
(1025 mb)
Calm - 10SM
20:53
Clear
39°F / 4°C 37°F / 3°C 93% 30.24 in
(1024 mb)
Calm - 10SM
19:53
Clear
43°F / 6°C 39°F / 4°C 87% 30.27 in
(1025 mb)
Calm - 10SM
18:53
Clear
46°F / 8°C 39°F / 4°C 76% 30.24 in
(1024 mb)
Calm - 10SM
17:53
Clear
54°F / 12°C 39°F / 4°C 58% 30.24 in
(1024 mb)
ENE 4.6 mph
(ENE 7 kph)
- 10SM
16:53
Clear
57°F / 14°C 39°F / 4°C 51% 30.24 in
(1024 mb)
NE 5.8 mph
(NE 9 kph)
- 10SM
15:53
Clear
59°F / 15°C 39°F / 4°C 48% 30.24 in
(1024 mb)
ENE 6.9 mph
(ENE 11 kph)
- 10SM
14:53
Clear
59°F / 15°C 39°F / 4°C 48% 30.27 in
(1025 mb)
NE 9.2 mph
(NE 15 kph)
- 10SM
13:53
Clear
59°F / 15°C 41°F / 5°C 51% 30.27 in
(1025 mb)
NE 6.9 mph
(NE 11 kph)
- 10SM
12:53
Clear
57°F / 14°C 39°F / 4°C 51% 30.3 in
(1026 mb)
NNE 8.1 mph
(NNE 13 kph)
- 10SM
11:53
Clear
54°F / 12°C 39°F / 4°C 58% 30.33 in
(1027 mb)
ENE 8.1 mph
(ENE 13 kph)
- 10SM
10:53
Clear
52°F / 11°C 39°F / 4°C 62% 30.33 in
(1027 mb)
Calm - 10SM
09:53
Clear
48°F / 9°C 39°F / 4°C 71% 30.33 in
(1027 mb)
ENE 11.5 mph
(ENE 19 kph)
- 10SM
08:53
Clear
45°F / 7°C 39°F / 4°C 81% 30.3 in
(1026 mb)
NE 6.9 mph
(NE 11 kph)
- 10SM
07:53
Clear
41°F / 5°C 37°F / 3°C 87% 30.3 in
(1026 mb)
NE 3.5 mph
(NE 6 kph)
- 10SM
06:53
Clear
39°F / 4°C 36°F / 2°C 87% 30.27 in
(1025 mb)
NE 6.9 mph
(NE 11 kph)
- 10SM
05:53
Clear
37°F / 3°C 36°F / 2°C 93% 30.27 in
(1025 mb)
NE 5.8 mph
(NE 9 kph)
- 10SM
04:53
Clear
Fog And Mist
34°F / 1°C 34°F / 1°C 100% 30.24 in
(1024 mb)
Calm - 6SM
04:48
Clear
Fog And Mist
36°F / 2°C 36°F / 2°C 100% 30.24 in
(1024 mb)
Calm - 5SM
04:41
Clear
Fog And Mist
36°F / 2°C 36°F / 2°C 100% 30.24 in
(1024 mb)
Calm - 2SM
04:31
Clear
Fog And Mist
36°F / 2°C 36°F / 2°C 100% 30.24 in
(1024 mb)
Calm - 1 3/4SM
03:53
Clear
Fog And Mist
37°F / 3°C 37°F / 3°C 100% 30.24 in
(1024 mb)
Calm - 6SM
02:53
Clear
37°F / 3°C 37°F / 3°C 100% 30.21 in
(1023 mb)
Calm - 8SM
01:53
Clear
39°F / 4°C 37°F / 3°C 93% 30.21 in
(1023 mb)
NNE 3.5 mph
(NNE 6 kph)
- 10SM
00:53
Clear
43°F / 6°C 41°F / 5°C 93% 30.21 in
(1023 mb)
N 4.6 mph
(N 7 kph)
- 10SM
Time Weather Temperature Dewpoint Humidity Pressure Winds Precip Visibility


Weather for websites

WeatherForYou.com, LLC is not responsible for any damages or problems caused by this service. Current weather conditions are obtained from the closest station including government and personal stations which may have varying degrees of accuracy. Weather forecasts are derived from the NOAA NDFD. Like all things, this site belongs to Jesus Christ... He just trusts me to maintain it. If you have any questions or comments email webmaster@weatherforyou.com

Copyright © 2014, WeatherForYou.com LLC. All rights reserved.